Stations météo

Publicité
Metz-Nancy-Lorraine, France (7093): Température de l'air & dewpoint: 18.01.2021 07:00:00 - 24.01.2021 07:00:00 (CET)Metz-Nancy-Lorraine, France (7093): Vitesse du vent & gusts: 18.01.2021 07:00:00 - 24.01.2021 07:00:00 (CET)Metz-Nancy-Lorraine, France (7093): Direction du vent: 18.01.2021 07:00:00 - 24.01.2021 07:00:00 (CET)Metz-Nancy-Lorraine, France (7093): reduced air pressure: 18.01.2021 07:00:00 - 24.01.2021 07:00:00 (CET)Metz-Nancy-Lorraine, France (7093): visibility: 18.01.2021 07:00:00 - 24.01.2021 07:00:00 (CET)Metz-Nancy-Lorraine, France (7093): Ensoleillement: 18.01.2021 07:00:00 - 24.01.2021 07:00:00 (CET)Metz-Nancy-Lorraine, France (7093): Quantités de précipitations: 18.01.2021 07:00:00 - 24.01.2021 07:00:00 (CET)
Date & Time tt [°C] td [°C] ff [km/h] ff [knt] fx [km/h] fx [knt] dd ppp [hPa] vv [km] sd [min] rr [mm]
24.01.2021 07:00:00 0,9 -2,2 22 12 33 18 W 1001,5 26 0 0,0
24.01.2021 06:00:00 0,7 -2,2 22 12 38 20 WSW 1001,0 21 0 0,0
24.01.2021 05:00:00 0,8 -2,4 24 13 48 26 WSW 1000,4 19 0 0,0
24.01.2021 04:00:00 1,0 -3,3 34 18 47 26 W 999,7 26 0 0,0
24.01.2021 03:00:00 1,0 -2,1 29 16 44 24 W 998,7 24 0 0,0
24.01.2021 02:00:00 1,3 -1,4 29 16 55 30 W 997,5 18 0 0,0
24.01.2021 01:00:00 1,6 -0,5 40 22 60 32 W 996,5 17 0 0,0
24.01.2021 00:00:00 1,8 0,0 40 21 62 33 W 995,2 42 0 0,0
23.01.2021 23:00:00 2,8 1,6 24 13 38 21 WSW 993,6 25 0 0,0
23.01.2021 22:00:00 2,7 1,8 23 12 32 18 SW 993,2 29 0 0,0
23.01.2021 21:00:00 2,6 2,0 19 11 29 15 SW 992,8 11 0 0,4
23.01.2021 20:00:00 2,0 1,1 21 12 29 16 SW 992,8 11 0 2,2
23.01.2021 19:00:00 2,9 1,7 14 8 28 15 SSE 992,6 6 0 1,6
23.01.2021 18:00:00 3,4 2,4 19 11 28 15 SSE 992,8 8 0 0,0
23.01.2021 17:00:00 3,1 2,2 16 9 34 19 SE 993,0 24 0 0,4
23.01.2021 16:00:00 2,5 1,6 19 10 29 15 SE 993,6 4,2 0 1,4
23.01.2021 15:00:00 2,5 1,2 21 11 39 21 SE 994,0 4,7 0 2,4
23.01.2021 14:00:00 4,1 1,3 19 10 30 16 S 995,1 25 0 0,0
23.01.2021 13:00:00 4,4 1,9 16 8 29 16 SSE 996,3 33 0 0,0
23.01.2021 12:00:00 4,5 1,9 19 11 31 17 S 997,6 24 0 0,0
23.01.2021 11:00:00 4,5 1,9 21 12 33 18 S 998,1 39 3 0,0
23.01.2021 10:00:00 4,0 2,2 17 9 25 13 S 999,0 28 0 0,0
23.01.2021 09:00:00 3,6 2,3 16 9 27 15 SSW 999,7 20 0 0,0
23.01.2021 08:00:00 3,6 2,3 18 10 32 17 S 999,8 21 0 0,0
23.01.2021 07:00:00 3,7 2,5 22 12 33 18 SSW 999,9 17 0 0,0
23.01.2021 06:00:00 3,5 2,5 17 9 31 17 S 1000,2 10 0 0,0
23.01.2021 05:00:00 3,2 2,3 16 9 25 14 S 1000,5 8 0 0,0
23.01.2021 04:00:00 3,1 2,1 19 10 29 16 SSW 1001,0 9 0 0,0
23.01.2021 03:00:00 2,7 2,0 12 6 25 14 S 1001,0 7 0 0,0
23.01.2021 02:00:00 2,1 1,4 16 8 24 13 SSW 1000,8 8 0 0,0
23.01.2021 01:00:00 1,9 0,3 14 7 24 13 SW 1000,8 24 0 0,0
23.01.2021 00:00:00 2,8 1,2 10 5 14 8 SW 1000,6 23 0 0,0
22.01.2021 23:00:00 3,0 1,0 9 5 13 7 W 999,8 24 0 0,0
22.01.2021 22:00:00 3,0 1,0 11 6 18 10 WNW 999,1 22 0 0,0
22.01.2021 21:00:00 3,3 1,5 12 7 19 11 WNW 999,3 19 0 0,0
22.01.2021 20:00:00 3,4 2,2 8 5 14 8 WNW 998,2 10 0 0,0
22.01.2021 19:00:00 3,5 2,2 10 6 16 9 NNW 997,2 7 0 0,0
22.01.2021 18:00:00 3,3 2,3 9 5 13 7 N 996,3 14 0 0,0
22.01.2021 17:00:00 3,7 2,4 10 5 16 8 N 996,1 21 0 0,0
22.01.2021 16:00:00 3,9 2,1 8 4 14 7 N 996,4 27 0 0,0
22.01.2021 15:00:00 3,7 1,9 9 5 14 7 NNE 995,7 26 0 0,0
22.01.2021 14:00:00 3,5 1,9 10 5 23 12 E 995,7 24 0 0,0
22.01.2021 13:00:00 3,2 1,9 13 7 21 11 ENE 995,9 33 0 0,4
22.01.2021 12:00:00 2,6 1,7 12 7 22 12 NNE 996,3 11 0 0,2
22.01.2021 11:00:00 1,9 1,3 16 8 29 15 N 996,0 6 0 1,4
22.01.2021 10:00:00 2,3 1,4 22 12 43 23 NNW 995,1 6 0 1,6
22.01.2021 09:00:00 4,5 3,9 19 11 27 14 NNW 993,5 2,0 0 3,7
22.01.2021 08:00:00 4,9 3,9 14 7 66 36 NNW 992,7 1,7 0 2,4
22.01.2021 07:00:00 8,3 5,9 42 23 69 37 SSW 991,3 11 0 0,0
22.01.2021 06:00:00 8,3 5,9 42 23 61 33 SSW 991,6 30 0 0,0
22.01.2021 05:00:00 8,2 6,2 39 21 61 33 SSW 992,1 16 0 0,0
22.01.2021 04:00:00 8,2 6,2 39 21 61 33 SSW 992,6 11 0 0,0
22.01.2021 03:00:00 8,9 5,6 44 24 75 40 SSW 992,5 23 0 0,0
22.01.2021 02:00:00 9,0 5,9 41 22 67 36 SSW 992,5 19 0 0,0
22.01.2021 01:00:00 9,4 5,6 46 25 74 40 SSW 992,4 37 0 0,0
22.01.2021 00:00:00 10,1 5,5 47 25 68 37 SSW 992,6 32 0 0,0
21.01.2021 23:00:00 10,2 5,4 48 26 81 44 SSW 992,9 35 0 0,0
21.01.2021 22:00:00 10,2 6,2 47 26 73 40 SSW 993,1 34 0 0,0
21.01.2021 21:00:00 10,1 6,4 53 29 81 44 SSW 993,7 36 0 0,2
21.01.2021 20:00:00 9,8 6,7 46 25 82 44 S 994,3 22 0 0,0
21.01.2021 19:00:00 10,0 6,5 36 19 64 35 S 995,1 36 0 0,0
21.01.2021 18:00:00 9,1 6,9 26 14 40 22 S 996,0 12 0 0,0
21.01.2021 17:00:00 8,0 6,5 20 11 32 17 S 997,2 14 0 0,0
21.01.2021 16:00:00 8,0 5,6 20 11 42 23 S 998,3 37 0 0,2
21.01.2021 15:00:00 9,2 4,8 23 12 41 22 SSW 998,8 27 0 0,0
21.01.2021 14:00:00 9,0 4,6 29 16 48 26 SW 999,5 35 16 0,0
21.01.2021 13:00:00 8,7 4,9 27 15 43 23 SW 1000,5 37 40 0,0
21.01.2021 12:00:00 6,7 4,2 29 16 39 21 SW 1000,8 24 0 0,0
21.01.2021 11:00:00 5,8 3,8 27 15 41 22 SW 1001,0 15 1 0,0
21.01.2021 10:00:00 6,1 4,4 33 18 70 38 W 1000,4 8 0 1,8
21.01.2021 09:00:00 9,0 6,3 49 26 77 42 SSW 997,9 15 0 0,2
21.01.2021 08:00:00 10,1 5,3 48 26 81 44 SSW 996,7 36 0 0,0
21.01.2021 07:00:00 10,0 4,8 48 26 83 45 SSW 996,7 39 0 0,0
21.01.2021 06:00:00 10,3 4,2 47 25 82 44 SSW 996,5 40 0 0,0
21.01.2021 05:00:00 10,0 3,7 48 26 81 44 SSW 996,6 42 0 0,0
21.01.2021 04:00:00 10,4 3,4 49 26 84 46 SSW 996,5 40 0 0,0
21.01.2021 03:00:00 10,2 3,0 41 22 59 32 SSW 997,0 39 0 0,0
21.01.2021 02:00:00 10,1 2,9 33 18 60 32 S 997,6 41 0 0,0
21.01.2021 01:00:00 10,1 2,9 32 18 53 29 S 998,4 41 0 0,0
21.01.2021 00:00:00 9,8 2,9 35 19 57 31 S 998,9 38 0 0,0
20.01.2021 23:00:00 9,5 3,2 32 17 51 28 S 999,1 36 0 0,0
20.01.2021 22:00:00 9,2 3,4 33 18 52 28 S 999,9 35 0 0,0
20.01.2021 21:00:00 9,7 3,4 38 21 57 31 S 1000,1 35 0 0,0
20.01.2021 20:00:00 9,3 3,3 33 18 55 30 SSW 1000,6 34 0 0,0
20.01.2021 19:00:00 8,8 3,2 26 14 41 22 S 1001,1 32 0 0,0
20.01.2021 18:00:00 8,7 3,3 29 15 42 23 S 1001,2 33 0 0,0
20.01.2021 17:00:00 8,8 3,4 19 10 42 23 S 1001,6 36 4 0,0
20.01.2021 16:00:00 10,1 4,2 27 14 43 23 S 1002,1 20 40 0,0
20.01.2021 15:00:00 10,7 4,6 24 13 35 19 S 1002,2 14 34 0,0
20.01.2021 14:00:00 10,7 4,8 22 12 35 19 S 1002,9 10 56 0,0
20.01.2021 13:00:00 8,5 3,7 26 14 40 22 S 1004,2 12 14 0,0
20.01.2021 12:00:00 7,5 3,4 24 13 38 20 S 1005,4 13 6 0,0
20.01.2021 11:00:00 6,2 2,1 27 14 39 21 S 1006,6 15 0 0,0
20.01.2021 10:00:00 5,3 1,6 28 15 40 22 S 1007,3 17 0 0,0
20.01.2021 09:00:00 4,4 1,1 32 18 44 24 S 1007,5 17 0 0,0
20.01.2021 08:00:00 3,9 -0,3 29 16 39 21 S 1008,1 23 0 0,0
20.01.2021 07:00:00 3,5 -1,1 27 15 36 19 S 1008,6 24 0 0,0
20.01.2021 06:00:00 2,9 -1,7 24 13 31 17 S 1009,3 27 0 0,0
20.01.2021 05:00:00 1,5 -2,1 27 14 33 18 SSE 1010,1 24 0 0,0
20.01.2021 04:00:00 2,9 -2,2 27 15 38 20 S 1010,6 27 0 0,0
20.01.2021 03:00:00 3,0 -2,3 27 15 37 20 S 1011,1 25 0 0,0
20.01.2021 02:00:00 2,9 -2,2 31 17 38 20 S 1011,3 26 0 0,0
20.01.2021 01:00:00 2,8 -1,8 30 16 39 21 S 1011,8 23 0 0,0
20.01.2021 00:00:00 2,1 -1,7 28 15 37 20 S 1012,3 21 0 0,0
19.01.2021 23:00:00 2,1 -2,2 24 13 32 17 S 1012,9 23 0 0,0
19.01.2021 22:00:00 2,5 -2,2 28 15 38 20 S 1013,5 28 0 0,0
19.01.2021 21:00:00 2,5 -2,0 25 14 34 19 S 1013,7 26 0 0,0
19.01.2021 20:00:00 2,4 -2,1 26 14 33 18 S 1014,3 26 0 0,0
19.01.2021 19:00:00 2,1 -1,9 18 10 37 20 S 1014,7 26 0 0,0
19.01.2021 18:00:00 3,0 -1,4 29 16 40 22 SSW 1014,7 29 0 0,0
19.01.2021 17:00:00 3,3 -0,2 28 15 37 20 S 1015,2 19 3 0,2
19.01.2021 16:00:00 3,1 0,5 23 13 35 19 S 1015,6 8 0 0,4
19.01.2021 15:00:00 3,1 0,5 25 14 38 20 SSW 1015,7 13 0 0,0
19.01.2021 14:00:00 2,3 0,8 28 15 54 29 SSW 1016,3 11 0 0,0
19.01.2021 13:00:00 2,7 0,6 38 21 51 28 SW 1016,8 12 0 0,2
19.01.2021 12:00:00 2,4 0,5 31 17 50 27 SSW 1017,5 9 0 0,4
19.01.2021 11:00:00 2,0 -0,6 32 18 55 30 SSW 1018,0 17 0 0,2
19.01.2021 10:00:00 2,3 -0,8 36 19 50 27 SSW 1018,1 33 0 0,0
19.01.2021 09:00:00 2,1 -1,0 30 16 48 26 SSW 1018,6 30 0 0,0
19.01.2021 08:00:00 2,0 -1,1 27 15 39 21 S 1019,4 31 0 0,0
19.01.2021 07:00:00 2,0 -0,9 32 17 42 23 S 1020,0 30 0 0,0
19.01.2021 06:00:00 1,9 -1,0 27 15 37 20 S 1020,6 30 0 0,0
19.01.2021 05:00:00 1,4 -0,5 24 13 38 20 S 1021,6 20 0 0,0
19.01.2021 04:00:00 1,7 -0,6 26 14 37 20 SSW 1022,5 23 0 0,0
19.01.2021 03:00:00 1,7 -0,4 27 15 36 20 SSW 1023,0 24 0 0,0
19.01.2021 02:00:00 1,7 -0,7 23 13 32 18 SSW 1023,7 27 0 0,0
19.01.2021 01:00:00 2,1 -0,8 21 11 31 17 SSW 1024,3 28 0 0,0
19.01.2021 00:00:00 1,8 -0,6 16 9 28 15 S 1025,3 27 0 0,0
18.01.2021 23:00:00 1,8 -0,3 21 11 28 15 S 1025,3 25 0 0,0
18.01.2021 22:00:00 1,8 0,0 19 10 25 14 S 1026,1 20 0 0,0
18.01.2021 21:00:00 1,8 0,0 21 11 26 14 SSE 1026,2 15 0 0,0
18.01.2021 20:00:00 1,9 0,1 23 12 29 16 S 1026,4 23 0 0,0
18.01.2021 19:00:00 2,0 0,2 20 11 25 13 SSW 1026,4 27 0 0,0
18.01.2021 18:00:00 2,3 0,2 16 9 21 11 SW 1026,4 29 0 0,0
18.01.2021 17:00:00 2,0 -0,1 11 6 23 12 SSW 1026,2 30 1 0,0
18.01.2021 16:00:00 2,4 -0,2 18 10 27 14 SSW 1026,3 29 3 0,0
18.01.2021 15:00:00 2,9 0,0 18 10 25 13 SW 1026,5 22 3 0,0
18.01.2021 14:00:00 2,6 -0,2 19 10 24 13 SSW 1027,1 13 25 0,0
18.01.2021 13:00:00 2,6 -0,2 19 11 23 13 SW 1027,7 11 31 0,0
18.01.2021 12:00:00 1,9 0,3 19 10 22 12 SSW 1028,3 12 18 0,0
18.01.2021 11:00:00 1,8 0,2 15 8 23 13 SW 1028,6 12 28 0,0
18.01.2021 10:00:00 1,3 0,1 17 9 21 11 SSW 1028,6 9 1 0,0
18.01.2021 09:00:00 1,5 0,2 15 8 26 14 WSW 1028,3 17 0 0,0
18.01.2021 08:00:00 1,2 0,2 18 10 22 12 SW 1027,9 16 0 0,0
18.01.2021 07:00:00 1,6 0,4 13 7 19 10 SW 1027,6 19 0 0,0

tt = Température de l'air
td = dewpoint
ff = Vitesse du vent
fx = gusts
dd = Direction du vent
ppp = reduced air pressure
vv = visibility
sd = Ensoleillement
rr = Quantités de précipitations

stations d'obs. à proximité